Massena, NY

6:43 PM EST on December 15, 2019 (GMT -0500)
Massena International-Richards

Weather History for KMSS - October, 2019

Change the Weather History Date:

Friday, October 4, 2019

  Actual Average Record
Temperature  
Mean Temperature 41 °F 51 °F  
Max Temperature 51 °F 61 °F 82 °F (1951)
Min Temperature 31 °F 40 °F 22 °F (1948)
Degree Days  
Heating Degree Days 24 14  
Month to date heating degree days 58 55  
Since 1 July heating degree days 273 355  
Cooling Degree Days 0 0  
Month to date cooling degree days 0 0  
Year to date cooling degree days 398 361  
Moisture  
Dew Point 37 °F    
Average Humidity 72    
Maximum Humidity 93    
Minimum Humidity 50    
Precipitation  
Precipitation 0.02 in 0.11 in 0.93 in (1949)
Month to date precipitation 0.96 0.43  
Year to date precipitation 24.67 26.62  
Sea Level Pressure  
Sea Level Pressure 30.22 in    
Wind  
Wind Speed 7 mph (NNW)    
Max Wind Speed 16 mph    
Max Gust Speed 21 mph    
Visibility 9 miles    
Events Rain    
T = Trace of Precipitation, MM = Missing Value Source: NWS Daily Summary

Daily Weather History Graph

Daily Weather History Graph

Search for Another Location

Airport or City:

Astronomy

Oct. 04, 2019 Rise Set
Actual Time 7:00 AM EDT 6:34 PM EDT
Civil Twilight 6:31 AM EDT 7:03 PM EDT
Nautical Twilight 5:57 AM EDT 7:37 PM EDT
Astronomical Twilight 5:23 AM EDT 8:12 PM EDT
Moon 1:44 PM EDT (10/4) 10:47 PM EDT (10/4)
Length of Visible Light 12h 32m
Length of Day
11h 33m
Waxing Crescent, 39% of the Moon is Illuminated
Oct 4
Waxing Crescent
Oct 5
First Quarter
Oct 13
Full
Oct 21
Last Quarter
Oct 27
New

Hourly Weather History & Observations

Time (EDT) Temp. Windchill Dew Point Humidity Pressure Visibility Wind Dir Wind Speed Gust Speed Precip Events Conditions
12:09 AM 44.1 °F 38.6 °F 41.0 °F 89% 29.94 in 5.0 mi NNE 10.4 mph - N/A   Overcast
12:53 AM 44.1 °F 40.8 °F 41.0 °F 89% 29.95 in 5.0 mi NNE 5.8 mph - N/A   Overcast
1:53 AM 43.0 °F 39.5 °F 41.0 °F 93% 29.97 in 5.0 mi NNW 5.8 mph - 0.01 in Rain Light Rain
2:53 AM 43.0 °F 38.2 °F 39.9 °F 89% 29.99 in 4.0 mi North 8.1 mph - 0.00 in Rain Light Rain
3:53 AM 43.0 °F 38.2 °F 41.0 °F 93% 30.03 in 5.0 mi NNW 8.1 mph - 0.01 in   Overcast
4:53 AM 43.0 °F 38.2 °F 39.9 °F 89% 30.07 in 6.0 mi North 8.1 mph - 0.00 in Rain Light Rain
5:32 AM 43.0 °F 37.7 °F 39.9 °F 89% 30.09 in 7.0 mi North 9.2 mph - 0.00 in Rain Light Rain
5:53 AM 43.0 °F 38.2 °F 39.0 °F 86% 30.11 in 7.0 mi North 8.1 mph - 0.00 in Rain Light Rain
6:31 AM 43.0 °F 40.3 °F 39.9 °F 89% 30.12 in 10.0 mi NNW 4.6 mph - 0.00 in   Overcast
6:53 AM 43.0 °F 41.3 °F 39.9 °F 89% 30.14 in 10.0 mi NNW 3.5 mph - 0.00 in   Overcast
7:29 AM 44.1 °F 40.1 °F 39.9 °F 85% 30.15 in 10.0 mi NNW 6.9 mph - N/A   Overcast
7:53 AM 44.1 °F 40.8 °F 39.9 °F 85% 30.18 in 10.0 mi NNW 5.8 mph - N/A   Overcast
8:03 AM 44.1 °F 39.5 °F 39.9 °F 85% 30.18 in 10.0 mi NNW 8.1 mph - N/A   Overcast
8:33 AM 44.1 °F 39.5 °F 39.9 °F 85% 30.19 in 10.0 mi NNW 8.1 mph - N/A   Overcast
8:53 AM 45.0 °F 41.2 °F 39.9 °F 82% 30.21 in 10.0 mi NNW 6.9 mph - N/A   Overcast
9:25 AM 45.0 °F 41.8 °F 39.9 °F 82% 30.22 in 10.0 mi NNW 5.8 mph - N/A   Overcast
9:34 AM 46.0 °F 41.9 °F 39.9 °F 79% 30.22 in 10.0 mi NNW 8.1 mph - N/A   Overcast
9:53 AM 46.0 °F 42.5 °F 39.9 °F 79% 30.25 in 10.0 mi NNW 6.9 mph - N/A   Overcast
10:53 AM 46.0 °F 41.0 °F 37.9 °F 73% 30.27 in 10.0 mi NNW 10.4 mph - N/A   Overcast
11:53 AM 46.9 °F - 37.0 °F 68% 30.29 in 10.0 mi NW 10.4 mph - N/A   Overcast
12:53 PM 46.9 °F - 37.0 °F 68% 30.30 in 10.0 mi WNW 10.4 mph - N/A   Overcast
1:08 PM 48.0 °F - 36.0 °F 63% 30.29 in 10.0 mi NW 9.2 mph - N/A   Overcast
1:38 PM 46.9 °F - 37.0 °F 68% 30.29 in 10.0 mi WNW 11.5 mph 18.4 mph N/A   Overcast
1:53 PM 48.0 °F - 36.0 °F 63% 30.30 in 10.0 mi NW 11.5 mph - N/A   Overcast
2:53 PM 48.9 °F - 34.0 °F 56% 30.30 in 10.0 mi NNW 10.4 mph - N/A   Overcast
3:53 PM 48.9 °F - 33.1 °F 54% 30.32 in 10.0 mi NNW 12.7 mph - N/A   Mostly Cloudy
4:53 PM 51.1 °F - 33.1 °F 50% 30.34 in 10.0 mi NNW 6.9 mph - N/A   Scattered Clouds
5:53 PM 48.9 °F - 33.1 °F 54% 30.36 in 10.0 mi NW 6.9 mph - N/A   Partly Cloudy
6:53 PM 45.0 °F 41.8 °F 32.0 °F 60% 30.39 in 10.0 mi NNW 5.8 mph - N/A   Clear
7:53 PM 45.0 °F 40.6 °F 32.0 °F 60% 30.40 in 10.0 mi NNW 8.1 mph - N/A   Clear
8:53 PM 43.0 °F 40.3 °F 32.0 °F 65% 30.43 in 10.0 mi North 4.6 mph - N/A   Clear
9:53 PM 41.0 °F 38.0 °F 32.0 °F 70% 30.44 in 10.0 mi North 4.6 mph - N/A   Clear
10:53 PM 41.0 °F 38.0 °F 32.0 °F 70% 30.45 in 10.0 mi North 4.6 mph - N/A   Clear
11:53 PM 34.0 °F - 30.9 °F 89% 30.46 in 10.0 mi Calm Calm - N/A   Clear